Time,TemperatureF,DewpointF,PressureIn,WindDirection,WindDirectionDegrees,WindSpeedMPH,WindSpeedGustMPH,Humidity,HourlyPrecipIn,Conditions,Clouds,dailyrainin,SoftwareType,DateUTC
2013-06-06 00:03:00,79.9,76.0,29.84,East,89,8.0,14.0,88,0.00,,,0.00,Wunderground v.1.15,2013-06-06 05:03:00,
2013-06-06 00:08:00,79.1,75.2,29.84,East,89,8.0,15.0,88,0.00,,,0.00,Wunderground v.1.15,2013-06-06 05:08:00,
2013-06-06 00:14:00,78.6,74.7,29.84,East,84,7.0,10.0,88,0.00,,,0.00,Wunderground v.1.15,2013-06-06 05:14:00,
2013-06-06 00:20:00,78.5,74.6,29.84,ENE,69,8.0,8.0,88,0.00,,,0.00,Wunderground v.1.15,2013-06-06 05:20:00,
2013-06-06 00:26:00,78.5,74.3,29.84,ENE,75,4.0,11.0,87,0.00,,,0.00,Wunderground v.1.15,2013-06-06 05:26:00,
2013-06-06 00:32:00,78.7,74.8,29.84,SE,126,8.0,9.0,88,0.00,,,0.00,Wunderground v.1.15,2013-06-06 05:32:00,
2013-06-06 00:37:00,78.5,74.6,29.84,East,84,4.0,9.0,88,0.00,,,0.00,Wunderground v.1.15,2013-06-06 05:37:00,
2013-06-06 00:43:00,78.2,74.4,29.83,ENE,67,10.0,10.0,88,0.00,,,0.00,Wunderground v.1.15,2013-06-06 05:43:00,
2013-06-06 00:49:00,77.8,74.3,29.83,East,81,6.0,11.0,89,0.00,,,0.00,Wunderground v.1.15,2013-06-06 05:49:00,
2013-06-06 00:54:00,78.1,74.9,29.83,ESE,108,5.0,12.0,90,0.00,,,0.00,Wunderground v.1.15,2013-06-06 05:54:00,
2013-06-06 01:00:00,78.2,74.0,29.83,East,101,9.0,9.0,87,0.00,,,0.00,Wunderground v.1.15,2013-06-06 06:00:00,
2013-06-06 01:06:00,78.2,73.3,29.83,East,94,11.0,11.0,85,0.00,,,0.00,Wunderground v.1.15,2013-06-06 06:06:00,
2013-06-06 01:12:00,78.2,73.3,29.82,East,85,8.0,15.0,85,0.00,,,0.00,Wunderground v.1.15,2013-06-06 06:12:00,
2013-06-06 01:18:00,78.1,73.9,29.82,East,96,13.0,18.0,87,0.00,,,0.00,Wunderground v.1.15,2013-06-06 06:18:00,
2013-06-06 01:23:00,78.1,73.9,29.82,ESE,117,16.0,16.0,87,0.00,,,0.00,Wunderground v.1.15,2013-06-06 06:23:00,
2013-06-06 01:29:00,78.1,73.9,29.82,ESE,120,7.0,16.0,87,0.00,,,0.00,Wunderground v.1.15,2013-06-06 06:29:00,
2013-06-06 01:35:00,78.1,73.9,29.82,East,84,12.0,14.0,87,0.00,,,0.00,Wunderground v.1.15,2013-06-06 06:35:00,
2013-06-06 01:41:00,78.2,73.7,29.81,SE,134,8.0,10.0,86,0.00,,,0.00,Wunderground v.1.15,2013-06-06 06:41:00,
2013-06-06 01:46:00,78.4,73.9,29.81,SE,132,10.0,15.0,86,0.00,,,0.00,Wunderground v.1.15,2013-06-06 06:46:00,
2013-06-06 01:52:00,78.6,73.0,29.81,ESE,110,7.0,12.0,83,0.00,,,0.00,Wunderground v.1.15,2013-06-06 06:52:00,
2013-06-06 01:57:00,78.7,73.5,29.81,ENE,72,10.0,13.0,84,0.00,,,0.00,Wunderground v.1.15,2013-06-06 06:57:00,
2013-06-06 02:02:00,78.7,73.5,29.81,East,100,13.0,16.0,84,0.00,,,0.00,Wunderground v.1.15,2013-06-06 07:02:00,
2013-06-06 02:07:00,78.1,73.6,29.82,ENE,76,7.0,19.0,86,0.00,,,0.00,Wunderground v.1.15,2013-06-06 07:07:00,
2013-06-06 02:12:00,77.3,72.4,29.81,East,101,11.0,18.0,85,0.00,,,0.00,Wunderground v.1.15,2013-06-06 07:12:00,
2013-06-06 02:17:00,77.0,71.8,29.81,East,86,9.0,18.0,84,0.00,,,0.00,Wunderground v.1.15,2013-06-06 07:17:00,
2013-06-06 02:22:00,76.4,71.6,29.81,East,86,4.0,12.0,85,0.00,,,0.00,Wunderground v.1.15,2013-06-06 07:22:00,
2013-06-06 02:27:00,75.8,71.0,29.81,ENE,63,7.0,13.0,85,0.00,,,0.00,Wunderground v.1.15,2013-06-06 07:27:00,
2013-06-06 02:32:00,75.3,70.5,29.81,East,84,5.0,8.0,85,0.00,,,0.00,Wunderground v.1.15,2013-06-06 07:32:00,
2013-06-06 02:37:00,75.0,69.8,29.81,NNW,342,2.0,8.0,84,0.00,,,0.00,Wunderground v.1.15,2013-06-06 07:37:00,
2013-06-06 02:42:00,74.7,69.9,29.81,NNW,338,3.0,3.0,85,0.00,,,0.00,Wunderground v.1.15,2013-06-06 07:42:00,
2013-06-06 02:47:00,74.3,69.5,29.81,NNW,345,2.0,5.0,85,0.00,,,0.00,Wunderground v.1.15,2013-06-06 07:47:00,
2013-06-06 02:52:00,74.0,69.5,29.80,North,350,1.0,2.0,86,0.00,,,0.00,Wunderground v.1.15,2013-06-06 07:52:00,
2013-06-06 02:57:00,73.7,69.6,29.80,North,359,1.0,2.0,87,0.00,,,0.00,Wunderground v.1.15,2013-06-06 07:57:00,
2013-06-06 03:02:00,73.5,69.7,29.80,North,349,1.0,2.0,88,0.00,,,0.00,Wunderground v.1.15,2013-06-06 08:02:00,
2013-06-06 03:07:00,73.1,69.7,29.80,NNW,339,1.0,3.0,89,0.00,,,0.00,Wunderground v.1.15,2013-06-06 08:07:00,
2013-06-06 03:12:00,72.7,69.6,29.79,NNW,336,2.0,2.0,90,0.00,,,0.00,Wunderground v.1.15,2013-06-06 08:12:00,
2013-06-06 03:17:00,72.4,69.3,29.79,NNW,340,0.0,2.0,90,0.00,,,0.00,Wunderground v.1.15,2013-06-06 08:17:00,
2013-06-06 03:22:00,72.1,69.3,29.78,NNW,341,0.0,2.0,91,0.00,,,0.00,Wunderground v.1.15,2013-06-06 08:22:00,
2013-06-06 03:27:00,71.8,69.0,29.78,NNW,341,2.0,2.0,91,0.00,,,0.00,Wunderground v.1.15,2013-06-06 08:27:00,
2013-06-06 03:32:00,71.6,68.8,29.78,NW,320,0.0,2.0,91,0.00,,,0.00,Wunderground v.1.15,2013-06-06 08:32:00,
2013-06-06 03:37:00,71.4,69.0,29.78,NW,320,1.0,2.0,92,0.00,,,0.00,Wunderground v.1.15,2013-06-06 08:37:00,
2013-06-06 03:42:00,71.2,68.8,29.78,NW,322,1.0,1.0,92,0.00,,,0.00,Wunderground v.1.15,2013-06-06 08:42:00,
2013-06-06 03:47:00,71.1,68.7,29.78,NNW,338,1.0,1.0,92,0.00,,,0.00,Wunderground v.1.15,2013-06-06 08:47:00,
2013-06-06 03:52:00,71.0,68.6,29.78,NNW,338,0.0,2.0,92,0.00,,,0.00,Wunderground v.1.15,2013-06-06 08:52:00,
2013-06-06 03:57:00,70.9,68.5,29.78,NNW,338,0.0,2.0,92,0.00,,,0.00,Wunderground v.1.15,2013-06-06 08:57:00,
2013-06-06 04:02:00,70.8,68.4,29.78,NNW,338,1.0,1.0,92,0.00,,,0.00,Wunderground v.1.15,2013-06-06 09:02:00,
2013-06-06 04:07:00,70.8,68.7,29.77,NNW,347,2.0,3.0,93,0.00,,,0.00,Wunderground v.1.15,2013-06-06 09:07:00,
2013-06-06 04:12:00,70.8,68.7,29.77,North,357,0.0,2.0,93,0.00,,,0.00,Wunderground v.1.15,2013-06-06 09:12:00,
2013-06-06 04:17:00,70.8,68.7,29.77,North,5,1.0,5.0,93,0.00,,,0.00,Wunderground v.1.15,2013-06-06 09:17:00,
2013-06-06 04:22:00,70.6,68.5,29.77,NNW,340,1.0,3.0,93,0.00,,,0.00,Wunderground v.1.15,2013-06-06 09:22:00,
2013-06-06 04:27:00,70.4,68.3,29.77,NNW,338,0.0,3.0,93,0.00,,,0.00,Wunderground v.1.15,2013-06-06 09:27:00,
2013-06-06 04:32:00,70.2,68.1,29.78,NNW,342,1.0,3.0,93,0.00,,,0.00,Wunderground v.1.15,2013-06-06 09:32:00,
2013-06-06 04:37:00,70.1,68.3,29.78,NNW,338,2.0,3.0,94,0.00,,,0.00,Wunderground v.1.15,2013-06-06 09:37:00,
2013-06-06 04:42:00,69.8,68.0,29.78,North,352,1.0,2.0,94,0.00,,,0.00,Wunderground v.1.15,2013-06-06 09:42:00,
2013-06-06 04:48:00,69.7,67.9,29.78,NW,314,0.0,2.0,94,0.00,,,0.00,Wunderground v.1.15,2013-06-06 09:48:00,
2013-06-06 04:53:00,69.6,67.5,29.78,North,352,1.0,4.0,93,0.00,,,0.00,Wunderground v.1.15,2013-06-06 09:53:00,
2013-06-06 04:58:00,69.6,67.5,29.79,NNW,330,2.0,4.0,93,0.00,,,0.00,Wunderground v.1.15,2013-06-06 09:58:00,
2013-06-06 05:03:00,69.6,67.5,29.78,North,351,1.0,4.0,93,0.00,,,0.00,Wunderground v.1.15,2013-06-06 10:03:00,
2013-06-06 05:08:00,69.6,67.5,29.78,North,11,2.0,4.0,93,0.00,,,0.00,Wunderground v.1.15,2013-06-06 10:08:00,
2013-06-06 05:13:00,69.6,67.5,29.78,North,356,1.0,2.0,93,0.00,,,0.00,Wunderground v.1.15,2013-06-06 10:13:00,
2013-06-06 05:18:00,69.5,67.4,29.78,NNE,16,1.0,4.0,93,0.00,,,0.00,Wunderground v.1.15,2013-06-06 10:18:00,
2013-06-06 05:23:00,69.4,67.6,29.77,ENE,69,0.0,3.0,94,0.00,,,0.00,Wunderground v.1.15,2013-06-06 10:23:00,
2013-06-06 05:28:00,69.2,67.4,29.78,North,360,2.0,3.0,94,0.00,,,0.00,Wunderground v.1.15,2013-06-06 10:28:00,
2013-06-06 05:33:00,69.0,67.2,29.78,NNE,23,3.0,3.0,94,0.00,,,0.00,Wunderground v.1.15,2013-06-06 10:33:00,
2013-06-06 05:38:00,68.9,67.1,29.78,North,8,1.0,3.0,94,0.00,,,0.00,Wunderground v.1.15,2013-06-06 10:38:00,
2013-06-06 05:43:00,68.8,67.0,29.78,North,11,2.0,3.0,94,0.00,,,0.00,Wunderground v.1.15,2013-06-06 10:43:00,
2013-06-06 05:48:00,68.7,66.9,29.78,NNW,328,1.0,3.0,94,0.00,,,0.00,Wunderground v.1.15,2013-06-06 10:48:00,
2013-06-06 05:53:00,68.6,66.8,29.78,NNE,20,1.0,2.0,94,0.00,,,0.00,Wunderground v.1.15,2013-06-06 10:53:00,
2013-06-06 05:58:00,68.7,67.2,29.78,NNW,334,3.0,3.0,95,0.00,,,0.00,Wunderground v.1.15,2013-06-06 10:58:00,
2013-06-06 06:03:00,68.6,67.1,29.78,NNW,336,1.0,3.0,95,0.00,,,0.00,Wunderground v.1.15,2013-06-06 11:03:00,
2013-06-06 06:08:00,68.6,67.1,29.78,NNE,15,2.0,3.0,95,0.00,,,0.00,Wunderground v.1.15,2013-06-06 11:08:00,
2013-06-06 06:13:00,68.6,67.1,29.79,NW,322,2.0,4.0,95,0.00,,,0.00,Wunderground v.1.15,2013-06-06 11:13:00,
2013-06-06 06:18:00,68.6,67.1,29.78,NE,43,2.0,4.0,95,0.00,,,0.00,Wunderground v.1.15,2013-06-06 11:18:00,
2013-06-06 06:23:00,68.6,67.1,29.78,North,352,3.0,4.0,95,0.00,,,0.00,Wunderground v.1.15,2013-06-06 11:23:00,
2013-06-06 06:28:00,68.8,67.3,29.79,NNW,336,3.0,5.0,95,0.00,,,0.00,Wunderground v.1.15,2013-06-06 11:28:00,
2013-06-06 06:33:00,69.2,67.7,29.78,NW,312,2.0,3.0,95,0.00,,,0.00,Wunderground v.1.15,2013-06-06 11:33:00,
2013-06-06 06:38:00,69.5,67.7,29.79,North,354,2.0,4.0,94,0.00,,,0.00,Wunderground v.1.15,2013-06-06 11:38:00,
2013-06-06 06:43:00,69.8,68.0,29.78,NNE,20,2.0,4.0,94,0.00,,,0.00,Wunderground v.1.15,2013-06-06 11:43:00,
2013-06-06 06:48:00,70.1,68.0,29.78,North,1,2.0,5.0,93,0.00,,,0.00,Wunderground v.1.15,2013-06-06 11:48:00,
2013-06-06 06:53:00,70.3,68.2,29.78,NNW,340,2.0,4.0,93,0.00,,,0.00,Wunderground v.1.15,2013-06-06 11:53:00,
2013-06-06 06:58:00,70.5,68.4,29.79,North,5,2.0,4.0,93,0.00,,,0.00,Wunderground v.1.15,2013-06-06 11:58:00,
2013-06-06 07:03:00,70.7,68.3,29.79,North,1,4.0,6.0,92,0.00,,,0.00,Wunderground v.1.15,2013-06-06 12:03:00,
2013-06-06 07:08:00,70.8,68.4,29.79,NNW,330,5.0,6.0,92,0.00,,,0.00,Wunderground v.1.15,2013-06-06 12:08:00,
2013-06-06 07:13:00,71.0,68.6,29.79,North,349,2.0,4.0,92,0.00,,,0.00,Wunderground v.1.15,2013-06-06 12:13:00,
2013-06-06 07:18:00,71.2,68.4,29.79,NNW,336,1.0,5.0,91,0.00,,,0.00,Wunderground v.1.15,2013-06-06 12:18:00,
2013-06-06 07:23:00,71.4,68.6,29.79,NNW,328,3.0,6.0,91,0.00,,,0.00,Wunderground v.1.15,2013-06-06 12:23:00,
2013-06-06 07:28:00,71.7,68.6,29.80,NNW,333,3.0,7.0,90,0.00,,,0.00,Wunderground v.1.15,2013-06-06 12:28:00,
2013-06-06 07:33:00,71.9,68.8,29.80,NNW,328,4.0,6.0,90,0.00,,,0.00,Wunderground v.1.15,2013-06-06 12:33:00,
2013-06-06 07:38:00,72.1,68.3,29.80,North,360,3.0,7.0,88,0.00,,,0.00,Wunderground v.1.15,2013-06-06 12:38:00,
2013-06-06 07:43:00,72.6,68.8,29.80,North,352,3.0,4.0,88,0.00,,,0.00,Wunderground v.1.15,2013-06-06 12:43:00,
2013-06-06 07:48:00,73.3,69.2,29.80,NNE,23,4.0,5.0,87,0.00,,,0.00,Wunderground v.1.15,2013-06-06 12:48:00,
2013-06-06 07:53:00,73.7,69.2,29.80,NNW,338,2.0,5.0,86,0.00,,,0.00,Wunderground v.1.15,2013-06-06 12:53:00,
2013-06-06 07:58:00,73.9,69.4,29.81,NW,314,3.0,7.0,86,0.00,,,0.00,Wunderground v.1.15,2013-06-06 12:58:00,
2013-06-06 08:03:00,74.1,69.3,29.81,North,6,2.0,6.0,85,0.00,,,0.00,Wunderground v.1.15,2013-06-06 13:03:00,
2013-06-06 08:08:00,74.3,69.1,29.81,NNE,13,5.0,6.0,84,0.00,,,0.00,Wunderground v.1.15,2013-06-06 13:08:00,
2013-06-06 08:13:00,74.8,69.6,29.81,NNE,18,2.0,5.0,84,0.00,,,0.00,Wunderground v.1.15,2013-06-06 13:13:00,
2013-06-06 08:18:00,75.2,69.0,29.81,NNW,328,3.0,8.0,81,0.00,,,0.00,Wunderground v.1.15,2013-06-06 13:18:00,
2013-06-06 08:23:00,75.4,69.5,29.81,NW,323,2.0,5.0,82,0.00,,,0.00,Wunderground v.1.15,2013-06-06 13:23:00,
2013-06-06 08:28:00,75.7,69.5,29.81,North,9,4.0,7.0,81,0.00,,,0.00,Wunderground v.1.15,2013-06-06 13:28:00,
2013-06-06 08:33:00,76.2,69.9,29.81,North,358,2.0,4.0,81,0.00,,,0.00,Wunderground v.1.15,2013-06-06 13:33:00,
2013-06-06 08:38:00,76.5,69.9,29.82,NNE,18,2.0,6.0,80,0.00,,,0.00,Wunderground v.1.15,2013-06-06 13:38:00,
2013-06-06 08:43:00,77.0,70.0,29.82,ENE,67,1.0,5.0,79,0.00,,,0.00,Wunderground v.1.15,2013-06-06 13:43:00,
2013-06-06 08:48:00,77.4,70.4,29.82,North,352,3.0,5.0,79,0.00,,,0.00,Wunderground v.1.15,2013-06-06 13:48:00,
2013-06-06 08:53:00,77.7,69.1,29.82,NW,311,3.0,5.0,75,0.00,,,0.00,Wunderground v.1.15,2013-06-06 13:53:00,
2013-06-06 08:58:00,78.1,68.7,29.82,ENE,61,2.0,5.0,73,0.00,,,0.00,Wunderground v.1.15,2013-06-06 13:58:00,
2013-06-06 09:03:00,78.6,68.0,29.82,NE,53,2.0,7.0,70,0.00,,,0.00,Wunderground v.1.15,2013-06-06 14:03:00,
2013-06-06 09:08:00,79.1,69.7,29.82,NNW,335,3.0,7.0,73,0.00,,,0.00,Wunderground v.1.15,2013-06-06 14:08:00,
2013-06-06 09:13:00,79.6,69.8,29.82,NE,48,4.0,4.0,72,0.00,,,0.00,Wunderground v.1.15,2013-06-06 14:13:00,
2013-06-06 09:18:00,80.0,69.3,29.82,NE,46,3.0,5.0,70,0.00,,,0.00,Wunderground v.1.15,2013-06-06 14:18:00,
2013-06-06 09:23:00,80.1,69.0,29.81,ENE,62,3.0,6.0,69,0.00,,,0.00,Wunderground v.1.15,2013-06-06 14:23:00,
2013-06-06 09:28:00,80.6,69.1,29.82,NW,314,2.0,6.0,68,0.00,,,0.00,Wunderground v.1.15,2013-06-06 14:28:00,
2013-06-06 09:33:00,80.6,68.6,29.82,NNW,333,2.0,4.0,67,0.00,,,0.00,Wunderground v.1.15,2013-06-06 14:33:00,
2013-06-06 09:38:00,80.9,68.9,29.81,ENE,71,2.0,5.0,67,0.00,,,0.00,Wunderground v.1.15,2013-06-06 14:38:00,
2013-06-06 09:43:00,81.2,69.2,29.81,North,356,2.0,4.0,67,0.00,,,0.00,Wunderground v.1.15,2013-06-06 14:43:00,
2013-06-06 09:48:00,81.4,68.9,29.81,NW,323,3.0,4.0,66,0.00,,,0.00,Wunderground v.1.15,2013-06-06 14:48:00,
2013-06-06 09:53:00,81.5,70.3,29.81,NNW,338,4.0,6.0,69,0.00,,,0.00,Wunderground v.1.15,2013-06-06 14:53:00,
2013-06-06 09:58:00,81.6,69.6,29.81,North,8,2.0,6.0,67,0.00,,,0.00,Wunderground v.1.15,2013-06-06 14:58:00,
2013-06-06 10:03:00,82.1,69.6,29.81,WNW,293,2.0,4.0,66,0.00,,,0.00,Wunderground v.1.15,2013-06-06 15:03:00,
2013-06-06 10:08:00,82.1,68.7,29.81,NNW,347,1.0,4.0,64,0.00,,,0.00,Wunderground v.1.15,2013-06-06 15:08:00,
2013-06-06 10:13:00,82.3,69.4,29.81,NNW,334,1.0,3.0,65,0.00,,,0.00,Wunderground v.1.15,2013-06-06 15:13:00,
2013-06-06 10:18:00,82.6,68.7,29.81,NNE,29,2.0,4.0,63,0.00,,,0.00,Wunderground v.1.15,2013-06-06 15:18:00,
2013-06-06 10:23:00,82.9,69.0,29.81,NNW,328,2.0,5.0,63,0.00,,,0.00,Wunderground v.1.15,2013-06-06 15:23:00,
2013-06-06 10:29:00,83.0,68.6,29.81,WNW,300,4.0,5.0,62,0.00,,,0.00,Wunderground v.1.15,2013-06-06 15:29:00,
2013-06-06 10:34:00,83.0,68.2,29.81,East,85,3.0,5.0,61,0.00,,,0.00,Wunderground v.1.15,2013-06-06 15:34:00,
2013-06-06 10:39:00,83.1,68.7,29.81,North,352,1.0,5.0,62,0.00,,,0.00,Wunderground v.1.15,2013-06-06 15:39:00,
2013-06-06 10:44:00,83.5,69.6,29.81,West,276,2.0,3.0,63,0.00,,,0.00,Wunderground v.1.15,2013-06-06 15:44:00,
2013-06-06 10:49:00,83.2,69.3,29.81,NW,323,5.0,7.0,63,0.00,,,0.00,Wunderground v.1.15,2013-06-06 15:49:00,
2013-06-06 10:54:00,83.1,69.7,29.81,NW,322,4.0,5.0,64,0.00,,,0.00,Wunderground v.1.15,2013-06-06 15:54:00,
2013-06-06 10:59:00,83.5,70.5,29.81,North,6,4.0,5.0,65,0.00,,,0.00,Wunderground v.1.15,2013-06-06 15:59:00,
2013-06-06 11:04:00,83.9,69.5,29.81,ESE,102,0.0,4.0,62,0.00,,,0.00,Wunderground v.1.15,2013-06-06 16:04:00,
2013-06-06 11:09:00,84.3,70.8,29.81,North,354,4.0,5.0,64,0.00,,,0.00,Wunderground v.1.15,2013-06-06 16:09:00,
2013-06-06 11:14:00,84.2,69.8,29.81,SSW,194,0.0,3.0,62,0.00,,,0.00,Wunderground v.1.15,2013-06-06 16:14:00,
2013-06-06 11:18:00,84.7,70.2,29.81,NW,311,0.0,3.0,62,0.00,,,0.00,Wunderground v.1.15,2013-06-06 16:18:00,
2013-06-06 11:23:00,84.9,69.0,29.81,East,98,0.0,3.0,59,0.00,,,0.00,Wunderground v.1.15,2013-06-06 16:23:00,
2013-06-06 11:29:00,85.3,70.8,29.81,NW,326,5.0,6.0,62,0.00,,,0.00,Wunderground v.1.15,2013-06-06 16:29:00,
2013-06-06 11:34:00,84.8,69.9,29.81,WNW,300,3.0,5.0,61,0.00,,,0.00,Wunderground v.1.15,2013-06-06 16:34:00,
2013-06-06 11:39:00,84.8,70.8,29.81,WNW,284,2.0,6.0,63,0.00,,,0.00,Wunderground v.1.15,2013-06-06 16:39:00,
2013-06-06 11:44:00,84.9,70.9,29.81,NW,304,3.0,7.0,63,0.00,,,0.00,Wunderground v.1.15,2013-06-06 16:44:00,
2013-06-06 11:49:00,85.4,71.4,29.80,NW,316,2.0,7.0,63,0.00,,,0.00,Wunderground v.1.15,2013-06-06 16:49:00,
2013-06-06 11:54:00,85.4,70.9,29.81,NW,324,3.0,5.0,62,0.00,,,0.00,Wunderground v.1.15,2013-06-06 16:54:00,
2013-06-06 11:59:00,85.4,69.4,29.81,WNW,296,3.0,6.0,59,0.00,,,0.00,Wunderground v.1.15,2013-06-06 16:59:00,
2013-06-06 12:04:00,85.2,70.2,29.81,West,274,2.0,7.0,61,0.00,,,0.00,Wunderground v.1.15,2013-06-06 17:04:00,
2013-06-06 12:09:00,85.2,70.7,29.80,NW,304,4.0,7.0,62,0.00,,,0.00,Wunderground v.1.15,2013-06-06 17:09:00,
2013-06-06 12:14:00,85.1,70.6,29.81,NNW,333,5.0,7.0,62,0.00,,,0.00,Wunderground v.1.15,2013-06-06 17:14:00,
2013-06-06 12:19:00,85.4,70.9,29.81,North,6,2.0,7.0,62,0.00,,,0.00,Wunderground v.1.15,2013-06-06 17:19:00,
2013-06-06 12:24:00,85.7,71.2,29.81,NNW,335,4.0,6.0,62,0.00,,,0.00,Wunderground v.1.15,2013-06-06 17:24:00,
2013-06-06 12:29:00,85.7,70.2,29.81,WNW,286,4.0,7.0,60,0.00,,,0.00,Wunderground v.1.15,2013-06-06 17:29:00,
2013-06-06 12:34:00,85.3,69.8,29.80,WNW,300,2.0,6.0,60,0.00,,,0.00,Wunderground v.1.15,2013-06-06 17:34:00,
2013-06-06 12:39:00,85.5,70.0,29.80,SW,228,1.0,6.0,60,0.00,,,0.00,Wunderground v.1.15,2013-06-06 17:39:00,
2013-06-06 12:44:00,85.5,71.0,29.80,North,6,1.0,7.0,62,0.00,,,0.00,Wunderground v.1.15,2013-06-06 17:44:00,
2013-06-06 12:49:00,85.5,71.5,29.80,NW,309,2.0,7.0,63,0.00,,,0.00,Wunderground v.1.15,2013-06-06 17:49:00,
2013-06-06 12:54:00,85.5,70.0,29.80,West,271,2.0,4.0,60,0.00,,,0.00,Wunderground v.1.15,2013-06-06 17:54:00,
2013-06-06 12:59:00,85.1,70.6,29.80,West,259,4.0,7.0,62,0.00,,,0.00,Wunderground v.1.15,2013-06-06 17:59:00,
2013-06-06 13:04:00,85.7,71.7,29.79,NNW,330,2.0,7.0,63,0.00,,,0.00,Wunderground v.1.15,2013-06-06 18:04:00,
2013-06-06 13:09:00,85.5,70.5,29.79,WNW,285,3.0,7.0,61,0.00,,,0.00,Wunderground v.1.15,2013-06-06 18:09:00,
2013-06-06 13:14:00,85.8,71.3,29.78,NNW,332,2.0,6.0,62,0.00,,,0.00,Wunderground v.1.15,2013-06-06 18:14:00,
2013-06-06 13:19:00,85.6,71.1,29.78,North,1,2.0,6.0,62,0.00,,,0.00,Wunderground v.1.15,2013-06-06 18:19:00,
2013-06-06 13:24:00,86.1,72.5,29.78,NW,318,6.0,7.0,64,0.00,,,0.00,Wunderground v.1.15,2013-06-06 18:24:00,
2013-06-06 13:29:00,86.6,72.5,29.78,SSE,166,2.0,8.0,63,0.00,,,0.00,Wunderground v.1.15,2013-06-06 18:29:00,
2013-06-06 13:34:00,87.0,72.9,29.78,SE,126,1.0,7.0,63,0.00,,,0.00,Wunderground v.1.15,2013-06-06 18:34:00,
2013-06-06 13:39:00,87.1,73.0,29.77,SSW,202,4.0,8.0,63,0.00,,,0.00,Wunderground v.1.15,2013-06-06 18:39:00,
2013-06-06 13:44:00,87.1,73.0,29.77,West,278,4.0,9.0,63,0.00,,,0.00,Wunderground v.1.15,2013-06-06 18:44:00,
2013-06-06 13:49:00,87.6,73.4,29.77,SW,227,10.0,10.0,63,0.00,,,0.00,Wunderground v.1.15,2013-06-06 18:49:00,
2013-06-06 13:54:00,87.4,73.3,29.77,SW,235,3.0,7.0,63,0.00,,,0.00,Wunderground v.1.15,2013-06-06 18:54:00,
2013-06-06 13:59:00,87.7,73.5,29.76,SSW,207,4.0,7.0,63,0.00,,,0.00,Wunderground v.1.15,2013-06-06 18:59:00,
2013-06-06 14:04:00,87.3,73.6,29.76,SSW,198,3.0,7.0,64,0.00,,,0.00,Wunderground v.1.15,2013-06-06 19:04:00,
2013-06-06 14:09:00,87.7,73.5,29.76,SSE,165,2.0,7.0,63,0.00,,,0.00,Wunderground v.1.15,2013-06-06 19:09:00,
2013-06-06 14:14:00,87.7,73.5,29.75,SSW,195,6.0,9.0,63,0.00,,,0.00,Wunderground v.1.15,2013-06-06 19:14:00,
2013-06-06 14:19:00,87.5,72.9,29.75,SW,216,7.0,9.0,62,0.00,,,0.00,Wunderground v.1.15,2013-06-06 19:19:00,
2013-06-06 14:24:00,87.0,71.9,29.75,South,191,6.0,10.0,61,0.00,,,0.00,Wunderground v.1.15,2013-06-06 19:24:00,
2013-06-06 14:29:00,86.7,71.6,29.74,West,262,3.0,10.0,61,0.00,,,0.00,Wunderground v.1.15,2013-06-06 19:29:00,
2013-06-06 14:34:00,86.8,73.2,29.75,SSW,203,1.0,7.0,64,0.00,,,0.00,Wunderground v.1.15,2013-06-06 19:34:00,
2013-06-06 14:39:00,87.1,73.0,29.74,WSW,248,5.0,8.0,63,0.00,,,0.00,Wunderground v.1.15,2013-06-06 19:39:00,
2013-06-06 14:44:00,87.1,73.4,29.74,SSW,203,2.0,7.0,64,0.00,,,0.00,Wunderground v.1.15,2013-06-06 19:44:00,
2013-06-06 14:49:00,87.1,73.4,29.73,WSW,246,7.0,9.0,64,0.00,,,0.00,Wunderground v.1.15,2013-06-06 19:49:00,
2013-06-06 14:54:00,87.0,74.3,29.73,SSW,192,4.0,8.0,66,0.00,,,0.00,Wunderground v.1.15,2013-06-06 19:54:00,
2013-06-06 14:59:00,87.0,74.7,29.73,WSW,246,4.0,8.0,67,0.00,,,0.00,Wunderground v.1.15,2013-06-06 19:59:00,
2013-06-06 15:04:00,87.2,75.3,29.73,WNW,284,1.0,10.0,68,0.00,,,0.00,Wunderground v.1.15,2013-06-06 20:04:00,
2013-06-06 15:09:00,87.4,75.5,29.72,SW,214,2.0,10.0,68,0.00,,,0.00,Wunderground v.1.15,2013-06-06 20:09:00,
2013-06-06 15:14:00,87.2,75.3,29.72,SSW,204,1.0,8.0,68,0.00,,,0.00,Wunderground v.1.15,2013-06-06 20:14:00,
2013-06-06 15:19:00,87.5,76.1,29.72,West,280,4.0,8.0,69,0.00,,,0.00,Wunderground v.1.15,2013-06-06 20:19:00,
2013-06-06 15:24:00,87.7,75.4,29.72,SSW,206,3.0,7.0,67,0.00,,,0.00,Wunderground v.1.15,2013-06-06 20:24:00,
2013-06-06 15:29:00,87.5,75.6,29.73,SSW,195,3.0,9.0,68,0.00,,,0.00,Wunderground v.1.15,2013-06-06 20:29:00,
2013-06-06 15:34:00,87.4,76.0,29.73,ESE,104,2.0,8.0,69,0.00,,,0.00,Wunderground v.1.15,2013-06-06 20:34:00,
2013-06-06 15:39:00,86.8,75.4,29.74,WNW,285,4.0,8.0,69,0.00,,,0.00,Wunderground v.1.15,2013-06-06 20:39:00,
2013-06-06 15:44:00,86.3,74.9,29.73,WSW,255,2.0,5.0,69,0.00,,,0.00,Wunderground v.1.15,2013-06-06 20:44:00,
2013-06-06 15:49:00,85.8,75.3,29.74,West,274,5.0,8.0,71,0.00,,,0.00,Wunderground v.1.15,2013-06-06 20:49:00,
2013-06-06 15:54:00,85.6,75.9,29.74,NNW,345,2.0,5.0,73,0.00,,,0.00,Wunderground v.1.15,2013-06-06 20:54:00,
2013-06-06 15:59:00,85.4,75.3,29.74,NNW,333,3.0,7.0,72,0.00,,,0.00,Wunderground v.1.15,2013-06-06 20:59:00,
2013-06-06 16:04:00,85.3,75.7,29.74,NW,304,8.0,11.0,73,0.00,,,0.00,Wunderground v.1.15,2013-06-06 21:04:00,
2013-06-06 16:09:00,84.8,75.6,29.74,WNW,302,8.0,17.0,74,0.00,,,0.00,Wunderground v.1.15,2013-06-06 21:09:00,
2013-06-06 16:14:00,83.0,75.0,29.74,NW,316,4.0,16.0,77,0.00,,,0.00,Wunderground v.1.15,2013-06-06 21:14:00,
2013-06-06 16:19:00,81.8,74.6,29.74,NW,322,4.0,16.0,79,0.00,,,0.00,Wunderground v.1.15,2013-06-06 21:19:00,
2013-06-06 16:24:00,80.8,73.7,29.74,North,356,6.0,12.0,79,0.00,,,0.00,Wunderground v.1.15,2013-06-06 21:24:00,
2013-06-06 16:29:00,80.0,72.5,29.75,NNW,340,8.0,15.0,78,0.00,,,0.00,Wunderground v.1.15,2013-06-06 21:29:00,
2013-06-06 16:34:00,79.6,72.1,29.75,NNW,333,5.0,10.0,78,0.00,,,0.00,Wunderground v.1.15,2013-06-06 21:34:00,
2013-06-06 16:39:00,79.2,70.2,29.76,NW,322,8.0,11.0,74,0.00,,,0.00,Wunderground v.1.15,2013-06-06 21:39:00,
2013-06-06 16:44:00,78.9,69.9,29.77,North,349,18.0,18.0,74,0.00,,,0.00,Wunderground v.1.15,2013-06-06 21:44:00,
2013-06-06 16:49:00,77.3,70.3,29.77,NNW,333,7.0,24.0,79,0.00,,,0.00,Wunderground v.1.15,2013-06-06 21:49:00,
2013-06-06 16:54:00,74.9,70.4,29.77,NNW,338,9.0,21.0,86,0.24,,,0.02,Wunderground v.1.15,2013-06-06 21:54:00,
2013-06-06 16:59:00,73.7,70.6,29.77,NNW,336,10.0,21.0,90,0.15,,,0.03,Wunderground v.1.15,2013-06-06 21:59:00,
2013-06-06 17:04:00,73.0,70.5,29.78,NNW,330,5.0,15.0,92,0.10,,,0.04,Wunderground v.1.15,2013-06-06 22:04:00,
2013-06-06 17:09:00,72.7,70.6,29.78,NNW,330,3.0,15.0,93,0.08,,,0.04,Wunderground v.1.15,2013-06-06 22:09:00,
2013-06-06 17:14:00,72.5,70.4,29.78,NNW,340,5.0,9.0,93,0.06,,,0.05,Wunderground v.1.15,2013-06-06 22:14:00,
2013-06-06 17:19:00,72.4,70.6,29.78,WNW,283,6.0,12.0,94,0.10,,,0.06,Wunderground v.1.15,2013-06-06 22:19:00,
2013-06-06 17:24:00,72.2,70.4,29.78,WNW,300,8.0,15.0,94,0.18,,,0.07,Wunderground v.1.15,2013-06-06 22:24:00,
2013-06-06 17:29:00,72.1,70.6,29.77,NNE,33,9.0,15.0,95,0.24,,,0.09,Wunderground v.1.15,2013-06-06 22:29:00,
2013-06-06 17:34:00,72.0,70.5,29.77,NNW,342,8.0,10.0,95,0.19,,,0.11,Wunderground v.1.15,2013-06-06 22:34:00,
2013-06-06 17:39:00,71.9,70.4,29.77,NW,324,3.0,11.0,95,0.12,,,0.11,Wunderground v.1.15,2013-06-06 22:39:00,
2013-06-06 17:44:00,71.8,70.3,29.76,North,4,6.0,11.0,95,0.11,,,0.12,Wunderground v.1.15,2013-06-06 22:44:00,
2013-06-06 17:49:00,71.7,70.2,29.75,NNW,338,2.0,11.0,95,0.08,,,0.13,Wunderground v.1.15,2013-06-06 22:49:00,
2013-06-06 17:54:00,71.6,70.1,29.75,NNW,330,5.0,11.0,95,0.14,,,0.14,Wunderground v.1.15,2013-06-06 22:54:00,
2013-06-06 17:59:00,71.5,70.0,29.75,NNW,343,5.0,11.0,95,0.17,,,0.16,Wunderground v.1.15,2013-06-06 22:59:00,
2013-06-06 18:04:00,71.5,70.0,29.75,NNW,340,2.0,7.0,95,0.16,,,0.17,Wunderground v.1.15,2013-06-06 23:04:00,
2013-06-06 18:09:00,71.4,69.9,29.74,NW,322,3.0,7.0,95,0.10,,,0.18,Wunderground v.1.15,2013-06-06 23:09:00,
2013-06-06 18:14:00,71.3,69.8,29.74,North,9,3.0,4.0,95,0.11,,,0.18,Wunderground v.1.15,2013-06-06 23:14:00,
2013-06-06 18:19:00,71.2,69.7,29.74,NNE,15,3.0,4.0,95,0.13,,,0.20,Wunderground v.1.15,2013-06-06 23:19:00,
2013-06-06 18:24:00,71.1,69.9,29.73,NNW,338,1.0,3.0,96,0.11,,,0.20,Wunderground v.1.15,2013-06-06 23:24:00,
2013-06-06 18:29:00,71.1,69.9,29.74,NNW,328,1.0,4.0,96,0.10,,,0.21,Wunderground v.1.15,2013-06-06 23:29:00,
2013-06-06 18:34:00,71.1,69.9,29.75,WNW,291,2.0,3.0,96,0.07,,,0.21,Wunderground v.1.15,2013-06-06 23:34:00,
2013-06-06 18:39:00,71.2,70.0,29.75,NW,315,1.0,3.0,96,0.05,,,0.22,Wunderground v.1.15,2013-06-06 23:39:00,
2013-06-06 18:44:00,71.2,70.0,29.76,WNW,297,3.0,5.0,96,0.05,,,0.22,Wunderground v.1.15,2013-06-06 23:44:00,
2013-06-06 18:49:00,71.4,70.2,29.76,WNW,300,3.0,5.0,96,0.05,,,0.22,Wunderground v.1.15,2013-06-06 23:49:00,
2013-06-06 18:54:00,71.5,70.3,29.76,WNW,294,2.0,3.0,96,0.04,,,0.22,Wunderground v.1.15,2013-06-06 23:54:00,
2013-06-06 18:59:00,71.6,70.4,29.76,NNW,330,1.0,4.0,96,0.00,,,0.23,Wunderground v.1.15,2013-06-06 23:59:00,
2013-06-06 19:04:00,71.8,70.6,29.77,NW,315,1.0,3.0,96,0.00,,,0.23,Wunderground v.1.15,2013-06-07 00:04:00,
2013-06-06 19:09:00,71.8,70.6,29.76,NW,314,1.0,3.0,96,0.00,,,0.23,Wunderground v.1.15,2013-06-07 00:09:00,
2013-06-06 19:14:00,71.9,70.7,29.76,NW,323,3.0,3.0,96,0.00,,,0.23,Wunderground v.1.15,2013-06-07 00:14:00,
2013-06-06 19:19:00,71.9,70.4,29.76,NW,319,2.0,4.0,95,0.00,,,0.23,Wunderground v.1.15,2013-06-07 00:19:00,
2013-06-06 19:24:00,71.9,70.4,29.76,NW,316,1.0,4.0,95,0.00,,,0.23,Wunderground v.1.15,2013-06-07 00:24:00,
2013-06-06 19:29:00,71.9,70.4,29.76,NW,307,2.0,5.0,95,0.00,,,0.23,Wunderground v.1.15,2013-06-07 00:29:00,
2013-06-06 19:34:00,72.0,70.5,29.77,NW,306,3.0,6.0,95,0.00,,,0.23,Wunderground v.1.15,2013-06-07 00:34:00,
2013-06-06 19:39:00,72.2,70.7,29.77,WNW,289,1.0,6.0,95,0.00,,,0.23,Wunderground v.1.15,2013-06-07 00:39:00,
2013-06-06 19:44:00,72.3,70.8,29.77,WNW,291,1.0,3.0,95,0.00,,,0.23,Wunderground v.1.15,2013-06-07 00:44:00,
2013-06-06 19:49:00,72.3,70.5,29.77,WNW,291,0.0,3.0,94,0.00,,,0.23,Wunderground v.1.15,2013-06-07 00:49:00,
2013-06-06 19:54:00,72.4,70.9,29.77,WSW,241,1.0,2.0,95,0.00,,,0.23,Wunderground v.1.15,2013-06-07 00:54:00,
2013-06-06 19:59:00,72.4,70.9,29.77,SSW,208,0.0,2.0,95,0.00,,,0.23,Wunderground v.1.15,2013-06-07 00:59:00,
2013-06-06 20:04:00,72.4,70.9,29.77,WSW,239,1.0,2.0,95,0.00,,,0.23,Wunderground v.1.15,2013-06-07 01:04:00,
2013-06-06 20:09:00,72.3,71.1,29.77,West,259,1.0,2.0,96,0.00,,,0.23,Wunderground v.1.15,2013-06-07 01:09:00,
2013-06-06 20:14:00,72.3,71.1,29.77,West,259,0.0,1.0,96,0.00,,,0.23,Wunderground v.1.15,2013-06-07 01:14:00,
2013-06-06 20:19:00,72.5,71.6,29.77,WSW,252,0.0,1.0,97,0.00,,,0.23,Wunderground v.1.15,2013-06-07 01:19:00,
2013-06-06 20:24:00,72.5,71.3,29.76,WSW,253,0.0,0.0,96,0.00,,,0.23,Wunderground v.1.15,2013-06-07 01:24:00,
2013-06-06 20:29:00,72.3,71.1,29.76,WSW,253,0.0,0.0,96,0.00,,,0.23,Wunderground v.1.15,2013-06-07 01:29:00,
2013-06-06 20:34:00,72.3,71.4,29.76,WSW,253,0.0,0.0,97,0.00,,,0.23,Wunderground v.1.15,2013-06-07 01:34:00,
2013-06-06 20:39:00,72.3,71.4,29.76,WSW,253,0.0,0.0,97,0.00,,,0.23,Wunderground v.1.15,2013-06-07 01:39:00,
2013-06-06 20:44:00,72.4,71.5,29.76,WSW,254,0.0,0.0,97,0.00,,,0.23,Wunderground v.1.15,2013-06-07 01:44:00,
2013-06-06 20:49:00,72.6,71.7,29.76,WSW,253,0.0,0.0,97,0.00,,,0.23,Wunderground v.1.15,2013-06-07 01:49:00,
2013-06-06 20:54:00,72.3,71.1,29.76,WSW,253,0.0,0.0,96,0.00,,,0.23,Wunderground v.1.15,2013-06-07 01:54:00,
2013-06-06 20:59:00,72.2,71.0,29.75,WSW,253,0.0,0.0,96,0.00,,,0.23,Wunderground v.1.15,2013-06-07 01:59:00,
2013-06-06 21:04:00,72.1,70.9,29.76,WSW,253,0.0,0.0,96,0.00,,,0.23,Wunderground v.1.15,2013-06-07 02:04:00,
2013-06-06 21:09:00,72.0,70.8,29.76,WSW,254,0.0,0.0,96,0.00,,,0.23,Wunderground v.1.15,2013-06-07 02:09:00,
2013-06-06 21:14:00,72.1,70.9,29.75,WSW,253,0.0,0.0,96,0.00,,,0.23,Wunderground v.1.15,2013-06-07 02:14:00,
2013-06-06 21:19:00,71.9,70.7,29.76,WSW,253,0.0,0.0,96,0.00,,,0.23,Wunderground v.1.15,2013-06-07 02:19:00,
2013-06-06 21:24:00,72.0,71.1,29.76,WSW,253,0.0,0.0,97,0.00,,,0.23,Wunderground v.1.15,2013-06-07 02:24:00,
2013-06-06 21:29:00,72.0,70.8,29.76,WSW,253,0.0,0.0,96,0.00,,,0.23,Wunderground v.1.15,2013-06-07 02:29:00,
2013-06-06 21:34:00,71.8,70.6,29.76,WSW,252,0.0,0.0,96,0.00,,,0.23,Wunderground v.1.15,2013-06-07 02:34:00,
2013-06-06 21:39:00,71.8,70.9,29.76,East,94,2.0,3.0,97,0.00,,,0.23,Wunderground v.1.15,2013-06-07 02:39:00,
2013-06-06 21:44:00,71.7,70.8,29.76,NE,54,1.0,4.0,97,0.00,,,0.23,Wunderground v.1.15,2013-06-07 02:44:00,
2013-06-06 21:49:00,71.5,70.3,29.76,ENE,61,1.0,4.0,96,0.00,,,0.23,Wunderground v.1.15,2013-06-07 02:49:00,
2013-06-06 21:54:00,71.3,70.1,29.76,NE,48,1.0,3.0,96,0.00,,,0.23,Wunderground v.1.15,2013-06-07 02:54:00,
2013-06-06 21:59:00,71.2,70.0,29.77,North,356,1.0,3.0,96,0.00,,,0.23,Wunderground v.1.15,2013-06-07 02:59:00,
2013-06-06 22:04:00,71.1,70.2,29.76,ENE,60,1.0,3.0,97,0.00,,,0.23,Wunderground v.1.15,2013-06-07 03:04:00,
2013-06-06 22:09:00,71.0,70.1,29.77,NNW,333,0.0,3.0,97,0.00,,,0.23,Wunderground v.1.15,2013-06-07 03:09:00,
2013-06-06 22:14:00,71.0,70.1,29.78,NW,325,2.0,4.0,97,0.00,,,0.23,Wunderground v.1.15,2013-06-07 03:14:00,
2013-06-06 22:19:00,70.9,70.0,29.78,NNW,330,2.0,4.0,97,0.00,,,0.23,Wunderground v.1.15,2013-06-07 03:19:00,
2013-06-06 22:24:00,70.9,70.0,29.79,NNW,344,1.0,4.0,97,0.00,,,0.23,Wunderground v.1.15,2013-06-07 03:24:00,
2013-06-06 22:29:00,71.0,70.4,29.79,NNW,334,2.0,4.0,98,0.00,,,0.23,Wunderground v.1.15,2013-06-07 03:29:00,
2013-06-06 22:34:00,71.0,70.4,29.78,NNW,330,2.0,3.0,98,0.00,,,0.23,Wunderground v.1.15,2013-06-07 03:34:00,
2013-06-06 22:39:00,71.0,70.4,29.78,NW,314,2.0,3.0,98,0.00,,,0.23,Wunderground v.1.15,2013-06-07 03:39:00,
2013-06-06 22:44:00,70.9,70.3,29.79,NW,312,1.0,3.0,98,0.00,,,0.23,Wunderground v.1.15,2013-06-07 03:44:00,
2013-06-06 22:49:00,70.8,70.2,29.79,NW,305,3.0,3.0,98,0.00,,,0.23,Wunderground v.1.15,2013-06-07 03:49:00,
2013-06-06 22:54:00,70.9,70.3,29.79,NNW,342,2.0,4.0,98,0.00,,,0.23,Wunderground v.1.15,2013-06-07 03:54:00,
2013-06-06 22:59:00,70.9,70.3,29.79,NNW,328,1.0,4.0,98,0.00,,,0.23,Wunderground v.1.15,2013-06-07 03:59:00,
2013-06-06 23:01:00,70.9,70.3,29.79,NNW,342,1.0,2.0,98,0.00,,,0.23,Wunderground v.1.15,2013-06-07 04:01:00,
2013-06-06 23:06:00,71.0,70.4,29.79,NW,316,2.0,4.0,98,0.00,,,0.23,Wunderground v.1.15,2013-06-07 04:06:00,
2013-06-06 23:11:00,71.0,70.4,29.79,NNW,329,2.0,4.0,98,0.00,,,0.23,Wunderground v.1.15,2013-06-07 04:11:00,
2013-06-06 23:17:00,71.0,70.4,29.79,NW,320,3.0,4.0,98,0.00,,,0.23,Wunderground v.1.15,2013-06-07 04:17:00,
2013-06-06 23:22:00,71.0,70.4,29.79,NW,319,2.0,2.0,98,0.00,,,0.23,Wunderground v.1.15,2013-06-07 04:22:00,
2013-06-06 23:27:00,71.0,70.4,29.80,West,280,2.0,4.0,98,0.00,,,0.23,Wunderground v.1.15,2013-06-07 04:27:00,
2013-06-06 23:32:00,71.1,70.5,29.80,West,263,3.0,4.0,98,0.00,,,0.23,Wunderground v.1.15,2013-06-07 04:32:00,
2013-06-06 23:37:00,71.2,70.3,29.81,West,266,1.0,4.0,97,0.00,,,0.23,Wunderground v.1.15,2013-06-07 04:37:00,
2013-06-06 23:42:00,71.2,70.3,29.81,West,266,1.0,1.0,97,0.00,,,0.23,Wunderground v.1.15,2013-06-07 04:42:00,
2013-06-06 23:47:00,71.3,70.4,29.81,West,278,2.0,3.0,97,0.00,,,0.23,Wunderground v.1.15,2013-06-07 04:47:00,
2013-06-06 23:52:00,71.4,70.5,29.81,West,278,4.0,5.0,97,0.00,,,0.23,Wunderground v.1.15,2013-06-07 04:52:00,
2013-06-06 23:57:00,71.6,70.7,29.81,West,279,3.0,5.0,97,0.00,,,0.00,Wunderground v.1.15,2013-06-07 04:57:00,